Flag for U.S.A. Weather past 2 weeks in Anaheim, California, U.S.A.

Now
79 °F

Sunny.


Feels Like: 80 °F
Forecast: 64 / 82 °F
Wind: 9 mph from Southwest

Location: Fullerton Municipal Airport

Current Time: Sep 20, 2014 at 5:16:16 PM

Latest Report: Sep 20, 2014 at 4:53 PM


Visibility: 10 mi

Pressure: 29.86 "Hg

Humidity: 52%

Dew point: 60 °F

Location of AnaheimLocation

Historic Weather in Anaheim — Graph

°F

Anaheim temperature yesterday

Maximum temperature yesterday: 82 °F (at 1:53 PM)
Minimum temperature yesterday: 69 °F (at 1:53 AM)
Average temperature yesterday: 74 °F

Past Weeks' High & Low Weather Summary

 TemperatureHumidityPressure
High104 °F (Sep 14, 2:53 PM)84% (Sep 6, 3:53 AM)29.94 "Hg (Sep 6, 3:53 AM)
Low65 °F (Sep 10, 6:53 AM)20% (Sep 9, 12:53 PM)29.66 "Hg (Sep 14, 2:53 PM)
Average81 °F54%29.79 "Hg
* Reported Sep 5 3:53 PM — Sep 20 3:53 PM, Anaheim, Weather by CustomWeather, © 2014

Note: Actual official high and low records may vary slightly from our data, if they occured in-between our weather recording intervals... More about our weather records

Advertising

Anaheim weather history for previous 24 hours

 ConditionsComfort  
Time TempWeatherWind HumidityBarometerVisibility
3:53 PM
Sep 20
80 °FPassing clouds.3 mph52%29.86 "Hg10 mi
2:53 PM78 °FScattered clouds.3 mph56%29.88 "Hg10 mi
1:53 PM78 °FOvercast.5 mph58%29.89 "Hg10 mi
12:53 PM76 °FOvercast.No wind62%29.92 "Hg10 mi
11:53 AM74 °FOvercast.6 mph69%29.93 "Hg10 mi
10:53 AM74 °FOvercast.No wind64%29.94 "Hg10 mi
5:53 AM70 °FOvercast.No wind76%29.89 "Hg10 mi
4:53 AM69 °FOvercast.3 mph79%29.88 "Hg10 mi
3:53 AM68 °FPassing clouds.No wind82%29.88 "Hg10 mi
2:53 AM69 °FPassing clouds.No wind79%29.88 "Hg10 mi
1:53 AM69 °FClear.No wind76%29.88 "Hg10 mi
12:53 AM70 °FClear.No wind73%29.88 "Hg10 mi
11:53 PM
Sep 19
70 °FClear.No wind71%29.88 "Hg10 mi
10:53 PM71 °FClear.No wind68%29.87 "Hg10 mi
9:53 PM71 °FClear.3 mph71%29.86 "Hg10 mi
8:53 PM72 °FClear.5 mph68%29.85 "Hg10 mi
7:53 PM74 °FClear.3 mph64%29.83 "Hg10 mi
6:53 PM75 °FSunny.6 mph62%29.82 "Hg10 mi
5:53 PM77 °FSunny.6 mph56%29.81 "Hg10 mi
Weather by CustomWeather, © 2014

See weather overviewHow to use our weather pages